カタログに戻る

DELTA 2 R/B(1)

運用中UNKNOWN
NORAD 22097·ROCKET BODY·🇺🇸 United States

打ち上げ Aug 31, 1992 から Cape Canaveral Space Force Station

Loading…

次のパス (今後24時間)

TLE

最新Source: Space-Track

元期: Sep 14, 2026, 13:15 UTC

1 22097U 92057B   26257.55211155  .00000095  00000-0  85195-3 0  9995
2 22097  25.2017 326.5472 0506755 255.3767 122.1460 10.92088350359369

AllMySatでDELTA 2 R/B(1)をリアルタイム追跡

Download on the App Store